Location: Kam�li
(14.6864°N, 3.1482°W)
Time: 02:16:50
(UTC+00:00)

H-2A R/B - Pass Details

Date: 29 October 2020
Orbit: 733 x 837 km, 98.2° (Epoch: 02 December)

Event Time Altitude Azimuth Distance (km) Brightness Sun altitude
Rises 19:27:16 0° 165° (SSE) 3,304 5.2 -25.1°
Reaches altitude 10° 19:29:35 10° 164° (SSE) 2,388 4.5 -25.6°
Enters shadow 19:31:37 24° 161° (SSE) 1,616 3.5 -26.1°
Exits shadow 19:37:07 37° 356° (N) 1,270 3.0 -27.4°
Drops below altitude 10° 19:40:18 10° 351° (N) 2,437 4.6 -28.2°
Sets 19:42:40 0° 350° (N) 3,376 5.4 -28.8°
